LTBA

Istanbul/Atatürk Airport

Airport
ICAO code
LTBA
IATA Code
IST
Summary
ICAO Region
EUR
ICAO Territory
Location

Yeşilköy, Istanbul

Serving
Istanbul
Elevation
163 ft
Coordinates
40° 58' 29" N , 28° 48' 35" E
KCC
Metar
Observation
LTBA 010850Z 24006KT 210V270 CAVOK 24/18 Q1021
Station
Istanbul / Ataturk
Date/Time
2022-10-01 08:50:00
Wind direction
240°
Wind speed
06 kts
Lowest cloud amount
clouds and visibility OK
Temperature
24°C
Dew point
18°C
Humidity
69%
QNH
1021 hPa
Weather condition
n/a

Airport serving city of Istanbul. Until April 2019, it was the main international airport serving Istanbul.

Climatology

Dry-summer subtropical ”Mediterranean" climate (Köppen climate classification Csa)

Runways

Designator Length Width Surface Rops
5/23 2600 60 ASP Yes/Yes
17L/35R 3000 45 CON Yes/Yes
17R/35L 3000 45 CON Yes/Yes

Airport map

Aerial View

SKYbrary Partners:

Safety knowledge contributed by: